DECAYED

ERS 1 DEB, 42669 (Decayed)

Orbit data source: Space-Track

ERS 1 DEB, 42669 was space debris in SSO originally from a launch on Wed, 17 Jul 1991 UTC launched from the French Guiana (FRGUI). Debris objects in space refer to the collection of defunct objects orbiting the Earth. Examples of debris include non-operational satellites, rocket bodies, and fragments generated from explosions, collisions, or faulty payload assembly.

Loading next visibility...
Identifier
42669, 1991-050T
Orbit
Decayed
Country
Flag of ESAESA
Related business
Manufacturer
Unknown
Mission
Decayed spacecraft
Bus & Motor
Unknown
Mass
Unknown
Launch date (UTC)
1991-07-17 (35 years ago)
Launch vehicle
Unknown
Launch site
French Guiana (FRGUI)
Object type
Payload
Rocket body
Debris
Shape & HBR
Unknown shape, 0.1 m
Radar Cross Section
Medium (>0.1 m² and <1 m²)

Expand to show TLE details & history
Last TLE update: 4 months ago

TLE from 4 months ago
0 ERS 1 DEB
1 42669U 91050T   26038.66942941  .03959095  20140-1  12483-1 0  9999
2 42669  98.5291  85.0561 0004412 270.6614  89.4152 15.94983052472430
Epoch: 2026-02-07T16:03Z
TLE epoch observation values (Epoch: 2026-02-07T16:03:58.701Z)
Latitude
-0.00003°
Longitude
66.27188°
Altitude
291.489 km
Speed
7.733 km/s
True Right ascension
05h 40m 13s
True Declination
0° 00' 00"
Sunlit
Object was in full shadow at epoch
Visualization orbit readout
Latitude
Unknown
Longitude
Unknown
Altitude
Unknown
Speed
Unknown
Apparent Right ascension
Unknown
Apparent Declination
Unknown
Sunlit
N/A
Visualization observer readout
Local Sidereal Time
23:08:20
Azimuth
Unknown
Elevation
Unknown
Doppler factor
Unknown
Orbital elements
Apogee altitude
288.221 km
Perigee altitude
282.342 km
Semi-major axis
6,663.419 km
Eccentricity
0.00044
Inclination
98.5291°
RAAN
85.0561°
Arg. of periapsis
270.6614°
True anomaly
89.46576°
Mean anomaly
89.4152°
Eccentric anomaly
89.44048°
Mean motion
3.99023 °/min
Orbital period
90.22 mins
BSTAR
0.012483
Loading maneuver chart data...
Computing Atmospheric mass density...
Loading historical data...
Loading historical data...
Loading historical data...
Loading historical data...
Loading historical data...
Loading historical data...
Loading historical data...

Documentation

Showing up to 5 results
|